Погода в Сургхете

Непал     28°36′23″N   81°36′51″E
темп.,
°C
ветер,
м/с
пор.,
м/с
влажн.,
%
обл.,
%
осадки,
мм/ч
давл.,
гПа
погр.,
м
5 марта, пт
пт523:45+18св23250 0.0 101528
02:45+16св22290 0.0 101428
05:45+15св22290 0.0 101332
08:45+23св11210 0.0 1014203
11:45+29зюз46120 0.0 10132157
14:45+30з6780 0.0 10093296
17:45+26з39120 0.0 1009348
20:45+19всв22150 0.0 101223
6 марта, сб
сб623:45+17всв23180 0.0 101326
02:45+15всв22220 0.0 101224
05:45+14св22230 0.0 101223
08:45+23всв12170 0.0 1014228
11:45+30ююз23110 0.0 10121497
14:45+30ююз33110 0.0 10101708
17:45+25ююз11170 0.0 101024
20:45+20всв33180 0.0 101330
7 марта, вс
вс723:45+18св22210 0.0 101428
02:45+17св33220 0.0 101332
05:45+17св32220 0.0 101231
08:45+25всв12170 0.0 1015211
11:45+32юз33110 0.0 10141510
14:45+33юз36100 0.0 10112667
17:45+28ююз12160 0.0 101037
20:45+22всв33200 0.0 101429
8 марта, пн
пн823:45+22св232029 0.0 101436
02:45+20св232264 0.0 101431
05:45+18с112948 0.0 101423
08:45+25всв222267 0.0 1018184
11:45+33ю221351 0.0 10172132
14:45+34ююз241061 0.0 10133653
17:45+29ююз221631 0.0 101234
20:45+23св33200 0.0 101529
9 марта, вт
вт923:45+21св33220 0.0 101634
02:45+20св33240 0.0 101543
05:45+19св33260 0.0 101544
08:45+26св12190 0.0 1017220
11:45+35зюз25120 0.0 10153273
14:45+34зюз44110 0.0 10123936
17:45+30з23150 0.0 101184
20:45+23всв22210 0.0 101425